Hourly Data Report for October 10, 2016

All times are specified in Local Standard Time (LST). Add 1 hour to adjust for Daylight Saving Time where and when it is observed.

FREDERICTON
NEW BRUNSWICK

45°52'08.000" N
66°32'14.000" W
20.70 m
8101505
71700
YFC

Download Data

Hourly Data (October 2016)
Hourly Data Report for October 10, 2016
Temp Definition
°C
Dew Point Temp Definition
°C
Rel Hum Definition
%
Wind Dir Definition
10's deg

Wind Spd Definition
km/h
Visibility Definition
km
Stn Press Definition
kPa
Hmdx Definition


Wind Chill Definition


Weather Definition


TIME
00:00 Legend Double Dagger 7.7 7.0 95 36 18 16.1 101.42     Rain
01:00 Legend Double Dagger 7.1 6.1 93 1 21 14.5 101.36     Moderate Rain
02:00 Legend Double Dagger 6.7 5.8 94 1 21 14.5 101.23     Moderate Rain
03:00 Legend Double Dagger 6.5 5.8 95 35 21 16.1 101.16     Moderate Rain
04:00 Legend Double Dagger 6.4 5.7 95 35 21 16.1 101.05     Moderate Rain
05:00 Legend Double Dagger 6.5 5.8 95 35 21 16.1 101.01     Moderate Rain
06:00 Legend Double Dagger 6.9 6.0 94 35 21 16.1 101.04     Rain
07:00 Legend Double Dagger 6.9 5.8 93 35 24 16.1 101.03     Rain
08:00 Legend Double Dagger 7.0 5.8 92 35 17 16.1 101.13     Rain
09:00 Legend Double Dagger 7.0 5.7 92 33 22 16.1 101.09     Rain
10:00 Legend Double Dagger 7.9 6.1 88 34 26 16.1 101.03     Rain
11:00 Legend Double Dagger 9.1 5.7 79 35 24 16.1 101.03     LegendNANA
12:00 Legend Double Dagger 10.0 5.6 74 34 34 16.1 101.04     LegendNANA
13:00 Legend Double Dagger 11.2 5.4 67 34 35 16.1 101.02     LegendNANA
14:00 Legend Double Dagger 11.3 4.8 64 36 22 16.1 101.12     LegendNANA
15:00 Legend Double Dagger 11.4 4.5 62 33 21 16.1 101.17     LegendNANA
16:00 Legend Double Dagger 11.3 4.4 63 33 28 16.1 101.23     LegendNANA
17:00 Legend Double Dagger 11.1 3.6 60 33 26 16.1 101.32     LegendNANA
18:00 Legend Double Dagger 9.8 2.6 61 32 26 16.1 101.50     LegendNANA
19:00 Legend Double Dagger 8.3 1.5 62 32 24 16.1 101.66     LegendNANA
20:00 Legend Double Dagger 7.3 1.0 64 32 21 16.1 101.78     LegendNANA
21:00 Legend Double Dagger 6.5 0.8 67 32 17 16.1 101.86     LegendNANA
22:00 Legend Double Dagger 6.1 0.7 68 32 21 16.1 101.95     LegendNANA
23:00 Legend Double Dagger 5.5 0.7 71 31 15 16.1 101.99     LegendNANA

Notes on Data Quality.

Legend

  • E = Estimated
  • M = Missing
  • NA = Not Available
  • ‡ = Partner data that is not subject to review by the National Climate Archives
Date modified: